Flag for India Weather past 2 weeks in Muktsar, Punjab, India

Now
99 °F

Clear.


Feels Like: 104 °F
Forecast: 85 / 111 °F
Wind: 10 mph from Southwest

Location: Lahore Airport

Current Time: Aug 20, 2014 at 6:55:30 PM

Latest Report: Aug 20, 2014 at 6:00 PM


Visibility: 5 mi

Pressure: 29.59 "Hg

Humidity: 37%

Dew point: 68 °F

Location of MuktsarLocation

Historic Weather in Muktsar — Graph

°F

Muktsar temperature yesterday

Maximum temperature yesterday: 102 °F (at 1:55 PM)
Minimum temperature yesterday: 81 °F (at 5:25 AM)
Average temperature yesterday: 93 °F

Past Weeks' High & Low Weather Summary

 TemperatureHumidityPressure
High102 °F (Aug 19, 1:55 PM)94% (Aug 8, 10:29 AM)29.80 "Hg (Aug 8, 10:29 AM)
Low77 °F (Aug 8, 10:29 AM)33% (Aug 19, 1:55 PM)29.39 "Hg (Aug 14, 5:25 PM)
Average89 °F65%29.57 "Hg
* Reported Aug 5 5:55 PM — Aug 20 6:00 PM, Muktsar, Weather by CustomWeather, © 2014

Note: Actual official high and low records may vary slightly from our data, if they occured in-between our weather recording intervals... More about our weather records

Advertising

Muktsar weather history for previous 24 hours

 ConditionsComfort  
Time TempWeatherWind HumidityBarometerVisibility
6:00 PM
Aug 20
99 °FClear.10 mph37%29.59 "Hg5 mi
5:30 PM99 °FClear.10 mph37%29.59 "Hg5 mi
4:29 PM100 °FClear.7 mph40%29.62 "Hg5 mi
3:59 PM99 °FClear.6 mph44%29.62 "Hg5 mi
3:30 PM99 °FClear.6 mph44%29.62 "Hg5 mi
2:59 PM99 °FClear.7 mph47%29.65 "Hg5 mi
2:29 PM99 °FClear.7 mph47%29.65 "Hg5 mi
1:59 PM99 °FClear.5 mph44%29.65 "Hg5 mi
12:59 PM97 °FClear.7 mph47%29.68 "Hg5 mi
12:29 PM97 °FClear.8 mph47%29.68 "Hg5 mi
11:55 AM95 °FClear.7 mph47%29.68 "Hg5 mi
11:30 AM95 °FClear.7 mph47%29.68 "Hg5 mi
10:55 AM93 °FClear.7 mph53%29.71 "Hg4 mi
10:29 AM93 °FClear.8 mph53%29.71 "Hg4 mi
9:59 AM91 °FClear.8 mph56%29.71 "Hg4 mi
9:25 AM91 °FClear.10 mph56%29.71 "Hg4 mi
8:55 AM90 °FClear.7 mph59%29.68 "Hg3 mi
8:25 AM88 °FClear.6 mph62%29.68 "Hg3 mi
7:55 AM88 °FClear.6 mph62%29.68 "Hg2 mi
7:25 AM86 °FClear.7 mph66%29.68 "Hg2 mi
6:55 AM84 °FPassing clouds.5 mph66%29.68 "Hg2 mi
6:25 AM82 °FPassing clouds.5 mph70%29.65 "Hg2 mi
5:55 AM84 °FClear.5 mph70%29.65 "Hg2 mi
5:30 AM84 °FClear.6 mph66%29.65 "Hg2 mi
4:55 AM84 °FClear.5 mph66%29.65 "Hg2 mi
4:25 AM86 °FClear.3 mph62%29.62 "Hg2 mi
3:55 AM86 °FClear.5 mph62%29.62 "Hg2 mi
3:25 AM86 °FClear.5 mph62%29.62 "Hg2 mi
2:55 AM86 °FClear.3 mph62%29.65 "Hg2 mi
1:55 AM88 °FClear.3 mph55%29.65 "Hg2 mi
1:25 AM88 °FClear.3 mph55%29.65 "Hg2 mi
12:55 AM88 °FClear.5 mph55%29.65 "Hg3 mi
11:55 PM
Aug 19
90 °FClear.3 mph52%29.65 "Hg3 mi
10:55 PM90 °FClear.3 mph52%29.68 "Hg3 mi
10:25 PM90 °FClear.5 mph52%29.68 "Hg3 mi
9:55 PM91 °FHaze.6 mph46%29.68 "Hg3 mi
9:25 PM93 °FHaze.No wind44%29.68 "Hg3 mi
8:55 PM93 °FClear.No wind44%29.68 "Hg4 mi
8:25 PM93 °FClear.No wind44%29.68 "Hg4 mi
7:55 PM95 °FClear.No wind41%29.65 "Hg4 mi
7:25 PM97 °FClear.5 mph39%29.68 "Hg4 mi
6:55 PM97 °FClear.6 mph37%29.65 "Hg4 mi
6:25 PM99 °FClear.7 mph35%29.68 "Hg4 mi
Weather by CustomWeather, © 2014

See weather overviewHow to use our weather pages